[[{"header":{"parameterUnit":"m.s-1","parameterCategory":1,"la1":30.2991,"la2":30.254,"lo1":-89.0895,"lo2":-89.0444,"dy":0.0017,"dx":0.0017,"nx":28,"ny":28,"refTime":"2025-08-27T09:00:00:Z","depth":0,"parameterNumber":2,"parameterNumberName":"U-component_of_WINDS"},"data":[0,0,0,0,0,0,0,0,0,0,0,0,0,0,0,0,0,0,0,0,0,0,0,0,0,0,0,0,0,0,0,0,0,0,0,0,0,0,0,0,0,0,0,0,0,0,0,0,0,0,0,0,0,0,0,0,0,0,-1.5584,-1.5584,0,-1.5611,-1.5611,-1.5611,-1.5584,-1.5583,-1.5581,-1.558,-1.5606,-1.5608,-1.561,0,0,0,0,0,0,0,0,0,0,0,0,0,-1.5508,-1.5509,-1.5583,-1.5584,-1.5584,-1.5611,-1.5611,-1.5611,-1.5584,-1.5582,-1.5581,-1.558,-1.5606,-1.5608,-1.561,0,0,0,0,0,0,0,0,0,0,0,0,0,-1.5538,-1.551,-1.5583,-1.5574,-1.5573,-1.5611,-1.5611,-1.5611,-1.5584,-1.5582,-1.5581,-1.5579,-1.5605,-1.5608,-1.561,-1.5658,0,0,-1.5618,-1.5619,0,0,0,0,0,0,0,0,-1.5536,-1.5541,-1.5575,-1.5574,-1.5574,-1.5592,-1.5594,-1.5627,-1.5584,-1.558,-1.558,-1.5579,-1.5603,-1.5605,-1.5614,-1.5659,-1.566,-1.5618,-1.562,-1.5621,-1.5621,0,0,0,0,0,0,0,-1.5534,-1.554,-1.5594,-1.5575,-1.5575,-1.5568,-1.557,-1.56,-1.56,-1.558,-1.5578,-1.5582,-1.5602,-1.5612,-1.5614,-1.5661,-1.5618,-1.562,-1.5622,-1.5623,-1.5747,-1.5749,0,0,0,0,0,0,-1.5533,-1.5538,-1.5593,-1.5595,-1.5551,-1.5571,-1.5573,-1.5588,-1.56,-1.56,-1.5583,-1.558,-1.5608,-1.5611,-1.5615,-1.5672,-1.5621,-1.5623,-1.5624,-1.5746,-1.5748,-1.575,0,0,0,0,0,0,-1.5532,-1.5539,-1.5592,-1.5566,-1.5572,-1.5574,-1.559,-1.5589,-1.5598,-1.5602,-1.5602,-1.5593,-1.5607,-1.5612,-1.5648,-1.5672,-1.5624,-1.5626,-1.5744,-1.5746,-1.5749,-1.5785,0,0,0,0,0,0,-1.553,-1.5538,-1.5556,-1.5567,-1.5574,-1.5624,-1.5592,-1.5591,-1.5603,-1.56,-1.5611,-1.5611,-1.5606,-1.5644,-1.565,-1.5675,-1.5628,-1.5741,-1.5745,-1.5748,-1.5782,-1.5789,-1.5795,0,0,0,0,0,-1.5527,-1.5565,-1.5557,-1.5564,-1.5596,-1.5626,-1.563,-1.5624,-1.5605,-1.5623,-1.5626,-1.5611,-1.5669,-1.5648,-1.5655,-1.568,-1.574,-1.5744,-1.5748,-1.5779,-1.5787,-1.5795,0,0,0,0,0,0,-1.5555,-1.5566,-1.5557,-1.56,-1.5612,-1.5621,-1.5643,-1.5633,-1.565,-1.5646,-1.5638,-1.5641,-1.5679,-1.5684,-1.566,-1.5728,-1.5701,-1.5707,-1.5723,-1.5731,-1.5737,-1.5734,-1.563,0,0,0,0,0,-1.5567,-1.559,-1.5598,-1.5635,-1.5642,-1.5642,-1.5654,-1.5649,-1.5661,-1.5666,-1.5671,-1.5683,-1.5705,-1.5719,-1.5738,-1.5784,-1.5785,-1.5805,-1.5811,-1.5817,-1.5821,-1.5845,-1.5854,-1.5763,-1.5763,-1.5763,0,0,-1.559,-1.5599,-1.5614,-1.5641,-1.5649,-1.5674,-1.5646,-1.5673,-1.569,-1.567,-1.5704,-1.5709,-1.5722,-1.5763,-1.5782,-1.5768,-1.5847,-1.5822,-1.5826,-1.5827,-1.585,-1.5859,-1.5866,-1.5766,-1.5765,-1.5765,0,0,-1.5644,-1.5654,-1.5685,-1.5695,-1.571,-1.5711,-1.5719,-1.573,-1.5732,-1.5767,-1.5753,-1.5774,-1.5811,-1.5821,-1.5831,-1.5893,-1.5879,-1.59,-1.5932,-1.5957,-1.5964,-1.597,-1.5991,-1.5999,-1.5904,-1.5904,-1.5905,0,-1.567,-1.5706,-1.5702,-1.573,-1.5742,-1.5727,-1.5759,-1.5769,-1.579,-1.5798,-1.5784,-1.5831,-1.5839,-1.5882,-1.5897,-1.5906,-1.5915,-1.5897,-1.5963,-1.5969,-1.5975,-1.5995,-1.6003,-1.5907,-1.5906,-1.5906,-1.5906,0,-1.5738,-1.5763,-1.5787,-1.5808,-1.5824,-1.5853,-1.5854,-1.587,-1.5865,-1.5867,-1.5903,-1.5913,-1.5934,-1.5945,-1.5939,-1.5988,-1.5979,-1.5965,-1.5937,-1.5986,-1.6005,-1.6012,-1.591,-1.5909,-1.5908,-1.5908,0,0,-1.5806,-1.5827,-1.5836,-1.5846,-1.5863,-1.5882,-1.5912,-1.5935,-1.5948,-1.5964,-1.5988,-1.6022,-1.6009,-1.602,-1.6016,-1.6038,-1.6085,-1.602,-1.602,-1.603,-1.6139,-1.6148,-1.6157,-1.6078,-1.6079,-1.6081,-1.6137,0,-1.5859,-1.5911,-1.591,-1.5958,-1.5982,-1.597,-1.5996,-1.6009,-1.6013,-1.6034,-1.6038,-1.6061,-1.6043,-1.605,-1.6071,-1.6075,-1.6106,-1.6071,-1.6099,-1.61,-1.6094,-1.6167,-1.6177,-1.6229,-1.6145,-1.6146,-1.6147,0,-1.5927,-1.5947,-1.5998,-1.6013,-1.6023,-1.6046,-1.6067,-1.6087,-1.6103,-1.6104,-1.6119,-1.6112,-1.6143,-1.6118,-1.6159,-1.6135,-1.6148,-1.6152,-1.6154,-1.6154,-1.6124,-1.6167,-1.6246,-1.6253,-1.6158,-1.6157,-1.6157,0,-1.597,-1.601,-1.6045,-1.6054,-1.6073,-1.609,-1.6098,-1.6113,-1.6127,-1.6146,-1.6155,-1.6177,-1.6189,-1.6206,-1.6206,-1.6187,-1.6248,-1.6222,-1.6249,-1.6249,-1.6259,-1.6258,-1.6339,-1.6272,-1.6272,-1.6271,-1.6271,0,-1.6028,-1.606,-1.6065,-1.6086,-1.6121,-1.6121,-1.6155,-1.6162,-1.6176,-1.6198,-1.619,-1.6212,-1.6211,-1.6233,-1.6234,-1.6268,-1.6274,-1.6275,-1.6274,-1.6274,-1.6274,-1.628,-1.6275,-1.6273,-1.6273,-1.6273,-1.6272,0,-1.6081,-1.6086,-1.6123,-1.6139,-1.6144,-1.6169,-1.6183,-1.6203,-1.6208,-1.6237,-1.6244,-1.6251,-1.6277,-1.6279,-1.6309,-1.6309,-1.635,-1.6347,-1.6345,-1.6343,-1.6369,-1.6366,-1.6455,-1.6466,-1.6393,-1.6394,-1.6394,0,-1.6116,-1.614,-1.6159,-1.6174,-1.6184,-1.6209,-1.6224,-1.6225,-1.6241,-1.6262,-1.628,-1.6306,-1.6326,-1.6368,-1.6375,-1.6398,-1.6394,-1.6424,-1.6397,-1.6397,-1.6392,-1.639,-1.6392,-1.6427,-1.6428,-1.6429,-1.6429,0,-1.6177,-1.618,-1.6202,-1.6226,-1.6244,-1.6263,-1.628,-1.6293,-1.6297,-1.6315,-1.6342,-1.6358,-1.639,-1.6415,-1.6438,-1.6447,-1.6438,-1.6439,-1.6446,-1.6444,-1.6442,-1.6442,-1.6356,-1.6436,-1.6435,-1.6434,-1.6434,-1.6434,-1.6221,-1.6242,-1.6259,-1.6285,-1.6299,-1.6316,-1.6336,-1.6345,-1.6368,-1.6393,-1.6394,-1.6423,-1.644,-1.6471,-1.6482,-1.6505,-1.6495,-1.6505,-1.6507,-1.6509,-1.6511,-1.6441,-1.6509,-1.6509,-1.6509,-1.6509,-1.6509,0,-1.628,-1.6292,-1.6316,-1.6341,-1.6362,-1.6355,-1.6375,-1.6392,-1.6418,-1.6435,-1.6456,-1.6488,-1.6513,-1.6524,-1.6549,-1.6565,-1.6562,-1.6571,-1.6569,-1.6571,-1.6519,-1.651,-1.6573,-1.6573,-1.6573,-1.6573,-1.6573,-1.6573,-1.6314,-1.6349,-1.6354,-1.6396,-1.6407,-1.6437,-1.6449,-1.6465,-1.6478,-1.6514,-1.6536,-1.6543,-1.6558,-1.6584,-1.6607,-1.661,-1.6619,-1.6629,-1.663,-1.6581,-1.6574,-1.6568,-1.6559,-1.6632,-1.6632,-1.6679,-1.668,-1.668]},{"header":{"parameterUnit":"m.s-1","parameterCategory":1,"la1":30.2991,"la2":30.254,"lo1":-89.0895,"lo2":-89.0444,"dy":0.0017,"dx":0.0017,"nx":28,"ny":28,"refTime":"2025-08-27T09:00:00:Z","depth":0,"parameterNumber":3,"parameterNumberName":"V-component_of_WINDS"},"data":[0,0,0,0,0,0,0,0,0,0,0,0,0,0,0,0,0,0,0,0,0,0,0,0,0,0,0,0,0,0,0,0,0,0,0,0,0,0,0,0,0,0,0,0,0,0,0,0,0,0,0,0,0,0,0,0,0,0,2.0428,2.0428,0,2.0466,2.0466,2.0467,2.0529,2.053,2.0531,2.0532,2.0567,2.0567,2.0566,0,0,0,0,0,0,0,0,0,0,0,0,0,2.0407,2.0407,2.0428,2.0428,2.0429,2.0466,2.0466,2.0467,2.0528,2.053,2.0531,2.0532,2.0567,2.0567,2.0566,0,0,0,0,0,0,0,0,0,0,0,0,0,2.0427,2.0407,2.0428,2.0464,2.0468,2.0466,2.0466,2.0467,2.0528,2.053,2.0532,2.0533,2.0567,2.0567,2.0566,2.0531,0,0,2.0566,2.0566,0,0,0,0,0,0,0,0,2.0426,2.0428,2.0458,2.0462,2.0466,2.0494,2.0472,2.0488,2.0528,2.0505,2.0532,2.0534,2.0541,2.0543,2.0546,2.0532,2.0534,2.0566,2.0566,2.0566,2.0565,0,0,0,0,0,0,0,2.0424,2.0427,2.0443,2.0459,2.0463,2.0478,2.0483,2.0475,2.0513,2.0507,2.0512,2.0516,2.0543,2.0546,2.0547,2.0534,2.0566,2.0566,2.0565,2.0565,2.0494,2.0492,0,0,0,0,0,0,2.0418,2.0425,2.0442,2.0444,2.045,2.0477,2.0482,2.0483,2.0513,2.0519,2.0514,2.0518,2.0546,2.0548,2.0549,2.0509,2.0566,2.0565,2.0565,2.0496,2.0493,2.0491,0,0,0,0,0,0,2.0417,2.0419,2.044,2.0436,2.044,2.0475,2.0476,2.0483,2.0486,2.0518,2.0525,2.051,2.0547,2.0549,2.0535,2.0511,2.0565,2.0565,2.0498,2.0495,2.0492,2.0429,0,0,0,0,0,0,2.0417,2.0418,2.0405,2.0435,2.044,2.0426,2.0475,2.0483,2.0486,2.0492,2.0517,2.0522,2.0549,2.0535,2.0535,2.0512,2.0565,2.05,2.0496,2.0493,2.0433,2.0424,2.0416,0,0,0,0,0,2.0416,2.0385,2.0405,2.0406,2.0424,2.0425,2.0427,2.0459,2.0484,2.0471,2.0492,2.0521,2.0514,2.0533,2.0534,2.051,2.0502,2.0497,2.0494,2.0437,2.0426,2.0417,0,0,0,0,0,0,2.035,2.0389,2.0411,2.039,2.0404,2.0435,2.0419,2.0447,2.0453,2.0458,2.0497,2.0502,2.0482,2.0495,2.0516,2.0477,2.0513,2.0508,2.0469,2.0459,2.0451,2.0447,2.0565,0,0,0,0,0,2.0333,2.0331,2.0365,2.0343,2.0349,2.0383,2.0384,2.0408,2.0423,2.0429,2.0449,2.0462,2.0463,2.0462,2.0464,2.0436,2.0442,2.042,2.0412,2.0405,2.04,2.0386,2.0377,2.0478,2.0478,2.0478,0,0,2.0298,2.0319,2.0315,2.033,2.0344,2.034,2.0387,2.0381,2.0378,2.0428,2.0416,2.0431,2.0448,2.0427,2.0418,2.0437,2.0374,2.04,2.0394,2.0393,2.0381,2.0371,2.0363,2.0476,2.0476,2.0477,0,0,2.0231,2.0248,2.0231,2.0244,2.0265,2.0288,2.0284,2.0312,2.0324,2.0314,2.0351,2.0348,2.0349,2.0359,2.0364,2.0305,2.0332,2.0304,2.026,2.0246,2.0238,2.0231,2.0209,2.02,2.03,2.03,2.03,0,2.0184,2.018,2.0218,2.021,2.0215,2.0263,2.0246,2.0256,2.0276,2.0278,2.0299,2.0302,2.0316,2.0298,2.0284,2.0287,2.0283,2.03,2.0236,2.023,2.0224,2.0203,2.0195,2.0296,2.0297,2.0297,2.0297,0,2.0121,2.0118,2.0102,2.0122,2.0126,2.0113,2.0148,2.0148,2.0172,2.0193,2.0181,2.0201,2.0209,2.0207,2.023,2.0192,2.0203,2.023,2.0265,2.021,2.0191,2.0183,2.0291,2.0292,2.0294,2.0294,0,0,2.0011,2.0054,2.0047,2.0057,2.0084,2.0082,2.0072,2.0081,2.0079,2.0092,2.0084,2.0084,2.011,2.0116,2.0141,2.0129,2.0079,2.0157,2.0158,2.0141,2.0038,2.0017,2.0007,2.0099,2.0097,2.0096,2.0037,0,1.9948,1.9934,1.9969,1.9945,1.9943,1.9989,1.998,1.9995,2.0015,2.0016,2.0038,2.0037,2.0071,2.0075,2.0066,2.0087,2.0059,2.0092,2.009,2.0089,2.0082,1.9997,1.9974,1.9916,2.0029,2.0028,2.0027,0,1.9873,1.9884,1.986,1.989,1.989,1.9882,1.9893,1.9894,1.9912,1.9928,1.9936,1.9966,1.9957,1.9994,1.9982,2.0004,2.0006,2.0016,2.0015,2.0014,2.0053,1.9992,1.9899,1.989,2.0016,2.0017,2.0018,0,1.9793,1.9802,1.9789,1.9797,1.9831,1.9824,1.9838,1.9859,1.9863,1.9873,1.9875,1.9884,1.9888,1.9894,1.9925,1.9949,1.9909,1.9948,1.9921,1.992,1.9908,1.9908,1.9812,1.9912,1.9912,1.9912,1.9912,0,1.9719,1.9702,1.9754,1.9746,1.9729,1.977,1.9752,1.977,1.9789,1.9785,1.9825,1.982,1.9863,1.9863,1.9888,1.9874,1.9876,1.9887,1.9893,1.9882,1.9881,1.9882,1.9886,1.991,1.9911,1.9911,1.9911,0,1.9626,1.966,1.9649,1.9684,1.9693,1.9679,1.9708,1.9702,1.9726,1.972,1.9721,1.9758,1.9759,1.9792,1.9801,1.9818,1.9793,1.9808,1.9787,1.9791,1.9761,1.9763,1.9661,1.9649,1.9758,1.9757,1.9756,0,1.9575,1.9564,1.9598,1.9599,1.9612,1.9613,1.9617,1.9658,1.966,1.9682,1.9673,1.9679,1.9685,1.9686,1.9712,1.9719,1.9733,1.9698,1.9734,1.9724,1.9731,1.9731,1.973,1.9689,1.9687,1.9686,1.9685,0,1.9481,1.9499,1.9505,1.9516,1.9521,1.9532,1.9545,1.9544,1.9588,1.9589,1.9592,1.9598,1.9608,1.9612,1.9625,1.9638,1.9668,1.9674,1.9668,1.9655,1.9643,1.9648,1.9764,1.9675,1.9676,1.9677,1.9678,1.9678,1.9407,1.9399,1.9422,1.9428,1.9443,1.9455,1.9451,1.9475,1.9479,1.9491,1.9515,1.9514,1.9535,1.9554,1.9566,1.9566,1.9584,1.9575,1.9572,1.9569,1.9563,1.9645,1.9568,1.9568,1.9569,1.9569,1.9569,0,1.9313,1.9332,1.9336,1.9355,1.9359,1.939,1.9407,1.9407,1.9407,1.9424,1.9431,1.9435,1.944,1.9468,1.9477,1.9471,1.9485,1.9472,1.9472,1.9474,1.9546,1.955,1.946,1.946,1.946,1.946,1.946,1.946,1.9265,1.9254,1.9275,1.9272,1.929,1.9291,1.9298,1.9309,1.9323,1.9327,1.9332,1.9351,1.9373,1.9384,1.939,1.9398,1.9398,1.938,1.9392,1.9459,1.9469,1.9479,1.9483,1.938,1.938,1.932,1.932,1.9319]}]]